Location: Waco, TX
(31.5480°N, 97.1670°W)
Time: 12:30:26
(UTC-05:00)

ISS - Pass Details

Date: 16 September 2018
Orbit: 403 x 408 km, 51.6° (Epoch: 26 September)

Event Time Altitude Azimuth Distance (km) Brightness Sun altitude
Rises 23:03:34 0° 249° (WSW) 2,321 - -42.6°
Reaches altitude 10° 23:05:52 10° 263° (W) 1,463 - -43.0°
Maximum altitude 23:08:40 26° 321° (NW) 852 - -43.5°
Drops below altitude 10° 23:11:29 10° 20° (NNE) 1,466 - -43.9°
Sets 23:13:48 0° 34° (NE) 2,328 - -44.3°
